Home > Weather > Douglas > Past weeks

Flag for Isle of Man Past Weather in Douglas, Isle of Man — Yesterday and Last 2 Weeks

Now
55 °F

Broken clouds.


Feels Like: 51 °F
Forecast: 52 / 59 °F
Wind: 17 mph from Southwest

Location: Isle Of Man / Ronaldsway Airport

Current Time: Jun 30, 2016 at 10:22:04 PM

Latest Report: Jun 30, 2016 at 9:50 PM


Visibility: N/A

Pressure: 29.56 "Hg

Humidity: 100%

Dew Point: 55 °F

Location of DouglasLocation

Past Weather in Douglas — Graph

°F

Douglas Temperature Yesterday

Maximum temperature yesterday: 59 °F (at 4:20 PM)
Minimum temperature yesterday: 52 °F (at 6:20 AM)
Average temperature yesterday: 55 °F

High & Low Weather Summary for the Past Weeks

 TemperatureHumidityPressure
High64 °F (Jun 20, 11:50 AM)100% (Jun 19, 3:50 AM)30.18 "Hg (Jun 19, 3:50 AM)
Low48 °F (Jun 28, 2:50 AM)56% (Jun 18, 12:50 PM)29.45 "Hg (Jun 29, 11:50 AM)
Average57 °F84%29.89 "Hg
* Reported Jun 15 9:50 PM — Jun 30 9:20 PM, Douglas, Weather by CustomWeather, © 2016

Note: Actual official high and low records may vary slightly from our data, if they occured in-between our weather recording intervals... More about our weather records

Advertising

Douglas Weather History for the Previous 24 Hours

Scroll right to see more
 ConditionsComfort  
Time TempWeatherWind HumidityBarometerVisibility
9:20 PM
Thu, Jun 30
55 °FLight rain. Partly sunny.16 mph100%29.56 "HgN/A
8:50 PM55 °FLight rain. Partly sunny.16 mph100%29.56 "HgN/A
8:20 PM55 °FRain. Low clouds.18 mph100%29.56 "Hg3 mi
7:50 PM55 °FRain. Low clouds.17 mph100%29.56 "Hg3 mi
7:20 PM55 °FRain. Low clouds.18 mph94%29.59 "Hg3 mi
6:50 PM54 °FRain. Cloudy.16 mph100%29.62 "Hg3 mi
6:20 PM54 °FRain. Partly sunny.18 mph100%29.62 "Hg4 mi
5:50 PM55 °FRain. Partly sunny.18 mph94%29.62 "Hg6 mi
5:20 PM55 °FRain. Partly sunny.20 mph94%29.65 "Hg6 mi
4:50 PM55 °FLight rain. Scattered clouds.20 mph88%29.65 "HgN/A
4:20 PM55 °FLight rain. Scattered clouds.18 mph88%29.65 "HgN/A
3:50 PM57 °FPassing clouds.20 mph77%29.68 "HgN/A
3:20 PM57 °FPassing clouds.16 mph77%29.68 "HgN/A
2:50 PM57 °FPassing clouds.18 mph82%29.68 "HgN/A
2:20 PM57 °FPassing clouds.18 mph82%29.68 "HgN/A
1:50 PM57 °FPassing clouds.17 mph77%29.68 "HgN/A
1:20 PM57 °FPassing clouds.15 mph77%29.68 "HgN/A
12:50 PM59 °FPassing clouds.14 mph77%29.71 "HgN/A
12:20 PM59 °FPassing clouds.14 mph77%29.71 "HgN/A
11:50 AM59 °FPassing clouds.14 mph77%29.71 "HgN/A
11:20 AM59 °FPassing clouds.15 mph77%29.71 "HgN/A
10:50 AM57 °FScattered clouds.13 mph82%29.71 "HgN/A
10:20 AM59 °FPassing clouds.14 mph77%29.71 "HgN/A
9:50 AM59 °FPassing clouds.15 mph77%29.71 "HgN/A
9:20 AM57 °FPassing clouds.13 mph77%29.71 "HgN/A
8:50 AM55 °FPassing clouds.13 mph82%29.71 "HgN/A
8:20 AM55 °FPassing clouds.12 mph82%29.71 "HgN/A
7:50 AM55 °FPassing clouds.10 mph82%29.68 "HgN/A
7:20 AM55 °FPassing clouds.9 mph88%29.68 "HgN/A
6:50 AM55 °FPassing clouds.9 mph88%29.68 "HgN/A
6:20 AM54 °FPassing clouds.6 mph88%29.68 "HgN/A
5:50 AM52 °FPassing clouds.5 mph88%29.68 "HgN/A
5:20 AM52 °FPassing clouds.7 mph88%29.68 "HgN/A
4:50 AM50 °FPassing clouds.5 mph94%29.68 "HgN/A
3:50 AM48 °FPassing clouds.2 mph100%29.68 "HgN/A
2:50 AM50 °FPassing clouds.3 mph94%29.65 "HgN/A
12:50 AM50 °FPassing clouds.8 mph94%29.65 "HgN/A
11:50 PM
Wed, Jun 29
52 °FPassing clouds.6 mph94%29.62 "HgN/A
10:50 PM54 °FPassing clouds.9 mph88%29.65 "HgN/A
10:20 PM55 °FPassing clouds.7 mph77%29.62 "HgN/A
Weather by CustomWeather, © 2016

See weather overviewHow to use our weather pages